Terug naar catalogus

THOR ABLESTAR DEB

ActiefLEO
NORAD 336·DEBRIS·🇺🇸 United States

Gelanceerd Jun 29, 1961 vanaf Cape Canaveral Space Force Station

Loading…

Volgende Passages (komende 24 uur)

TLE

VersSource: Space-Track

Epoch: Sep 13, 2026, 23:53 UTC

1 00336U 61015DN  26256.99540683  .00000022  00000-0  10527-3 0  9992
2 00336  67.0329 346.9864 0071901  71.4310 102.9797 13.69236853251352

Volg THOR ABLESTAR DEB in realtime met AllMySat

Download on the App Store